Location: Auckland
(36.8500°S, 174.7800°E)
Time: 16:35:27
(UTC+13:00)

ISS - Visible Passes

Search period start: 16 December 2017 00:00
Search period end: 26 December 2017 00:00
Orbit: 402 x 406 km, 51.6° (Epoch: 16 December)

Date Brightness Start Highest point End Pass type
(mag) Time Alt. Az. Time Alt. Az. Time Alt. Az.
16 Dec -0.7 01:54:17 15° S 01:54:17 15° S 01:55:43 10° SSE visible
17 Dec -0.5 01:03:21 13° SSE 01:03:21 13° SSE 01:03:54 10° SSE visible
18 Dec -0.4 01:45:19 10° SSW 01:45:53 10° SSW 01:46:27 10° S visible
18 Dec -0.5 04:59:44 10° S 05:01:31 14° SSE 05:03:18 10° SE visible
19 Dec -0.6 00:53:10 14° SSW 00:53:18 14° SSW 00:55:13 10° SSE visible
20 Dec -1.2 00:00:00 19° SW 00:00:48 21° SSW 00:03:27 10° SSE visible
20 Dec -1.1 04:51:00 10° SSW 04:53:45 23° SSE 04:56:30 10° E visible
20 Dec -2.5 21:29:33 10° N 21:32:04 20° NE 21:34:36 10° E visible
20 Dec -2.1 23:05:17 10° WNW 23:08:22 35° SW 23:11:29 10° SE visible
21 Dec -0.5 03:59:10 10° SSW 04:01:15 15° SSE 04:03:21 10° ESE visible
21 Dec -3.5 22:12:44 10° NW 22:16:01 69° SW 22:19:20 10° SE visible
21 Dec -0.3 23:51:27 10° SW 23:53:01 13° SSW 23:54:36 10° S visible
22 Dec -0.1 03:07:40 10° S 03:08:40 11° SSE 03:09:38 10° SE visible
22 Dec -2.8 04:42:32 10° SW 04:45:47 50° SE 04:49:01 10° ENE visible
22 Dec -3.7 21:20:30 10° NW 21:23:44 55° NE 21:27:00 10° ESE visible
22 Dec -0.8 22:58:02 10° WSW 23:00:27 18° SSW 23:02:52 10° SSE visible
23 Dec -1.5 03:50:27 10° SSW 03:53:23 28° SSE 03:56:17 10° E visible
23 Dec -2.9 05:26:55 10° WSW 05:29:49 28° NW 05:32:41 10° NNE visible
23 Dec -1.6 22:05:00 10° W 22:07:57 29° SSW 22:10:55 10° SSE visible
24 Dec -0.8 02:58:30 10° SSW 03:00:52 18° SSE 03:03:13 10° ESE visible
24 Dec -3.8 04:34:19 10° SW 04:37:36 60° NW 04:40:51 10° NE visible
24 Dec -2.9 21:12:16 10° WNW 21:15:31 53° SW 21:18:48 10° SE visible
24 Dec -0.2 22:51:28 10° SW 22:52:37 11° SSW 22:53:46 10° S visible
25 Dec -0.3 02:06:48 10° S 02:08:15 12° SSE 02:09:43 10° SE visible
25 Dec -3.4 03:41:58 10° SW 03:45:17 64° SE 03:48:33 10° ENE visible
25 Dec -1.8 05:20:30 10° WNW 05:21:20 11° NW 05:22:10 10° NW visible
25 Dec -0.6 21:57:49 10° WSW 21:59:58 16° SSW 22:02:09 10° SSE visible
